SWA2471 KBWI-KDEN

Flight info

Callsign SWA2471
Flight time N/A
Altitude 30000
Route LINSE2 MCRAY Q178 DJB CPONE JOT J60 IOW DSM OBH BRWRY LAWGR4
Aircraft B738/M-SADE2E3GIJ4RWZ/LB1D1

Departure

Time N/A
Airport Baltimore/Washington International Thurgood Marshall Airport (KBWI)

Arrival

Time 2026-05-05 22:04
Airport Denver International Airport (KDEN)
Time Latitude Longitude Altitude Speed Heading
2026-05-05 19:06 41.36229 -82.22679 29838 ft 368 kts 273°
2026-05-05 19:06 41.36444 -82.26063 29834 ft 365 kts 272°
2026-05-05 19:07 41.36813 -82.32780 29834 ft 368 kts 272°
2026-05-05 19:07 41.37194 -82.39520 29830 ft 364 kts 272°
2026-05-05 19:08 41.37580 -82.46310 29833 ft 369 kts 272°
2026-05-05 19:08 41.37965 -82.53029 29827 ft 365 kts 272°
2026-05-05 19:09 41.38350 -82.59792 29825 ft 366 kts 272°
2026-05-05 19:09 41.38726 -82.66492 29824 ft 365 kts 272°
2026-05-05 19:10 41.39099 -82.73247 29830 ft 367 kts 271°
2026-05-05 19:10 41.39468 -82.80007 29830 ft 365 kts 271°
2026-05-05 19:11 41.39834 -82.86805 29833 ft 373 kts 272°
2026-05-05 19:11 41.40207 -82.93821 29832 ft 388 kts 271°
2026-05-05 19:12 41.40588 -83.00996 29828 ft 387 kts 271°
2026-05-05 19:12 41.40962 -83.08118 29822 ft 388 kts 271°
2026-05-05 19:13 41.41333 -83.15287 29827 ft 387 kts 271°
2026-05-05 19:13 41.41701 -83.22435 29828 ft 388 kts 271°
2026-05-05 19:14 41.42064 -83.29568 29836 ft 387 kts 271°
2026-05-05 19:14 41.42417 -83.36651 29846 ft 386 kts 271°
2026-05-05 19:15 41.42767 -83.43780 29845 ft 386 kts 271°
2026-05-05 19:15 41.43115 -83.50941 29854 ft 388 kts 271°
2026-05-05 19:16 41.43458 -83.58052 29848 ft 387 kts 271°
2026-05-05 19:16 41.43796 -83.65207 29849 ft 387 kts 270°
2026-05-05 19:17 41.44132 -83.72396 29853 ft 388 kts 270°
2026-05-05 19:17 41.44461 -83.79527 29847 ft 386 kts 271°
2026-05-05 19:18 41.44787 -83.86694 29851 ft 388 kts 271°
2026-05-05 19:18 41.45106 -83.93778 29853 ft 386 kts 270°
2026-05-05 19:19 41.45423 -84.00931 29855 ft 387 kts 270°
2026-05-05 19:19 41.45739 -84.08105 29850 ft 387 kts 270°
2026-05-05 19:20 41.46046 -84.15205 29845 ft 387 kts 271°
2026-05-05 19:20 41.46347 -84.22407 29848 ft 387 kts 270°
2026-05-05 19:21 41.46644 -84.29545 29850 ft 387 kts 271°
2026-05-05 19:21 41.46936 -84.36685 29840 ft 383 kts 270°
2026-05-05 19:22 41.47077 -84.40105 29847 ft 368 kts 270°
2026-05-05 19:22 41.47216 -84.43472 29845 ft 361 kts 270°
2026-05-05 19:22 41.47487 -84.50245 29835 ft 370 kts 271°
2026-05-05 19:23 41.47758 -84.57070 29843 ft 367 kts 271°
2026-05-05 19:23 41.48023 -84.63837 29851 ft 369 kts 271°
2026-05-05 19:24 41.48284 -84.70658 29842 ft 369 kts 270°
2026-05-05 19:24 41.48539 -84.77451 29846 ft 370 kts 270°
2026-05-05 19:25 41.48791 -84.84272 29848 ft 369 kts 270°
2026-05-05 19:25 41.49032 -84.91082 29848 ft 369 kts 270°
2026-05-05 19:26 41.49272 -84.97900 29854 ft 369 kts 270°
2026-05-05 19:26 41.49511 -85.04716 29859 ft 369 kts 270°
2026-05-05 19:27 41.49746 -85.11510 29857 ft 370 kts 270°
2026-05-05 19:27 41.49976 -85.18315 29861 ft 369 kts 270°
2026-05-05 19:28 41.50201 -85.25183 29858 ft 370 kts 270°
2026-05-05 19:28 41.50430 -85.32026 29871 ft 371 kts 270°
2026-05-05 19:29 41.50653 -85.38845 29858 ft 369 kts 270°
2026-05-05 19:29 41.50875 -85.45669 29868 ft 369 kts 270°
2026-05-05 19:30 41.51091 -85.52492 29860 ft 368 kts 270°
2026-05-05 19:30 41.51299 -85.59260 29860 ft 368 kts 270°
2026-05-05 19:31 41.51504 -85.66110 29864 ft 368 kts 269°
2026-05-05 19:31 41.51698 -85.72899 29870 ft 368 kts 270°
2026-05-05 19:32 41.51893 -85.79662 29870 ft 367 kts 269°
2026-05-05 19:32 41.52084 -85.86484 29870 ft 368 kts 269°
2026-05-05 19:33 41.52275 -85.93268 29871 ft 368 kts 269°
2026-05-05 19:33 41.52459 -86.00111 29873 ft 368 kts 269°
2026-05-05 19:34 41.52626 -86.06898 29867 ft 367 kts 269°
2026-05-05 19:35 41.52811 -86.17093 29865 ft 366 kts 269°
2026-05-05 19:35 41.52926 -86.23879 29873 ft 367 kts 269°
2026-05-05 19:36 41.53038 -86.30649 29877 ft 363 kts 269°
2026-05-05 19:36 41.53148 -86.37376 29876 ft 365 kts 269°
2026-05-05 19:37 41.53255 -86.44118 29877 ft 365 kts 269°
2026-05-05 19:37 41.53360 -86.50861 29885 ft 365 kts 269°
2026-05-05 19:38 41.53457 -86.57620 29886 ft 364 kts 269°
2026-05-05 19:38 41.53551 -86.64333 29888 ft 363 kts 269°
2026-05-05 19:39 41.53640 -86.71075 29887 ft 363 kts 268°
2026-05-05 19:39 41.53725 -86.77760 29882 ft 362 kts 269°
2026-05-05 19:40 41.53807 -86.84472 29885 ft 362 kts 268°
2026-05-05 19:40 41.53881 -86.91161 29883 ft 362 kts 268°
2026-05-05 19:41 41.53953 -86.97853 29881 ft 361 kts 268°
2026-05-05 19:41 41.54020 -87.04565 29884 ft 361 kts 268°
2026-05-05 19:42 41.54085 -87.11226 29884 ft 362 kts 268°
2026-05-05 19:42 41.54159 -87.17927 29887 ft 360 kts 268°
2026-05-05 19:43 41.54224 -87.24595 29886 ft 364 kts 268°
2026-05-05 19:43 41.54283 -87.31261 29886 ft 359 kts 268°
2026-05-05 19:44 41.54335 -87.37948 29886 ft 361 kts 268°
2026-05-05 19:44 41.54385 -87.44637 29885 ft 360 kts 268°
2026-05-05 19:45 41.54428 -87.51292 29885 ft 360 kts 269°
2026-05-05 19:45 41.54465 -87.58000 29883 ft 362 kts 268°
2026-05-05 19:46 41.54504 -87.64687 29886 ft 360 kts 268°
2026-05-05 19:46 41.54537 -87.71339 29884 ft 360 kts 268°
2026-05-05 19:47 41.54573 -87.78022 29883 ft 361 kts 267°
2026-05-05 19:47 41.54599 -87.84714 29885 ft 361 kts 267°
2026-05-05 19:48 41.54615 -87.91412 29883 ft 360 kts 268°
2026-05-05 19:48 41.54631 -87.98099 29885 ft 362 kts 267°
2026-05-05 19:49 41.54641 -88.04778 29888 ft 361 kts 267°
2026-05-05 19:49 41.54650 -88.11427 29887 ft 360 kts 268°
2026-05-05 19:50 41.54658 -88.18102 29890 ft 360 kts 268°
2026-05-05 19:50 41.54659 -88.24748 29891 ft 361 kts 267°
2026-05-05 19:51 41.54655 -88.31445 29889 ft 360 kts 267°
2026-05-05 19:51 41.54675 -88.38130 29893 ft 362 kts 268°
2026-05-05 19:52 41.54720 -88.44772 29892 ft 361 kts 268°
2026-05-05 19:52 41.54755 -88.51463 29898 ft 362 kts 268°
2026-05-05 19:53 41.54787 -88.58160 29886 ft 360 kts 268°
2026-05-05 19:53 41.54808 -88.64822 29886 ft 361 kts 268°
2026-05-05 19:54 41.54825 -88.71491 29883 ft 362 kts 268°
2026-05-05 19:54 41.54841 -88.78195 29886 ft 361 kts 267°
2026-05-05 19:55 41.54855 -88.84848 29881 ft 359 kts 268°
2026-05-05 19:55 41.54857 -88.91520 29877 ft 363 kts 267°
2026-05-05 19:56 41.54862 -88.98219 29888 ft 360 kts 267°
2026-05-05 19:56 41.54860 -89.04910 29882 ft 360 kts 267°
2026-05-05 19:57 41.54857 -89.11560 29889 ft 361 kts 267°
2026-05-05 19:57 41.54845 -89.18226 29890 ft 360 kts 268°
2026-05-05 19:58 41.54831 -89.24856 29893 ft 358 kts 268°
2026-05-05 19:58 41.54816 -89.31516 29886 ft 360 kts 268°
2026-05-05 19:59 41.54800 -89.38179 29896 ft 359 kts 268°
2026-05-05 19:59 41.54777 -89.44791 29896 ft 358 kts 267°
2026-05-05 20:00 41.54754 -89.51422 29889 ft 357 kts 267°
2026-05-05 20:00 41.54722 -89.58014 29906 ft 356 kts 268°
2026-05-05 20:01 41.54686 -89.64598 29895 ft 355 kts 267°
2026-05-05 20:01 41.54643 -89.71170 29898 ft 356 kts 266°
2026-05-05 20:02 41.54599 -89.77757 29904 ft 354 kts 267°
2026-05-05 20:02 41.54556 -89.84308 29911 ft 356 kts 267°
2026-05-05 20:03 41.54501 -89.90902 29905 ft 357 kts 266°
2026-05-05 20:03 41.54447 -89.97536 29889 ft 356 kts 267°
2026-05-05 20:04 41.54392 -90.04105 29907 ft 355 kts 266°
2026-05-05 20:04 41.54336 -90.10664 29902 ft 356 kts 267°
2026-05-05 20:05 41.54275 -90.17231 29903 ft 354 kts 266°
2026-05-05 20:05 41.54205 -90.23781 29896 ft 353 kts 266°
2026-05-05 20:06 41.54131 -90.30331 29907 ft 355 kts 267°
2026-05-05 20:06 41.54052 -90.36914 29897 ft 353 kts 267°
2026-05-05 20:07 41.53972 -90.43456 29898 ft 354 kts 267°
2026-05-05 20:07 41.53889 -90.49977 29899 ft 354 kts 267°
2026-05-05 20:08 41.53803 -90.56545 29902 ft 353 kts 268°
2026-05-05 20:08 41.53708 -90.63108 29894 ft 355 kts 266°
2026-05-05 20:09 41.53611 -90.69643 29900 ft 353 kts 266°
2026-05-05 20:09 41.53515 -90.76202 29888 ft 354 kts 266°
2026-05-05 20:10 41.53409 -90.82750 29895 ft 356 kts 266°
2026-05-05 20:10 41.53300 -90.89296 29899 ft 355 kts 266°
2026-05-05 20:11 41.53192 -90.95880 29877 ft 354 kts 266°
2026-05-05 20:11 41.53086 -91.02393 29915 ft 354 kts 266°
2026-05-05 20:12 41.52977 -91.08938 29916 ft 351 kts 267°
2026-05-05 20:12 41.52860 -91.15463 29905 ft 355 kts 267°
2026-05-05 20:13 41.52737 -91.22002 29906 ft 353 kts 266°
2026-05-05 20:13 41.52610 -91.28569 29898 ft 354 kts 266°
2026-05-05 20:14 41.52482 -91.35091 29913 ft 354 kts 267°
2026-05-05 20:14 41.52342 -91.41614 29901 ft 351 kts 266°
2026-05-05 20:15 41.52202 -91.48115 29927 ft 352 kts 266°
2026-05-05 20:15 41.52063 -91.54633 29909 ft 353 kts 266°
2026-05-05 20:16 41.51917 -91.61159 29904 ft 352 kts 266°
2026-05-05 20:16 41.51728 -91.67694 29891 ft 351 kts 265°
2026-05-05 20:17 41.51508 -91.74210 29910 ft 353 kts 265°
2026-05-05 20:17 41.51289 -91.80679 29897 ft 352 kts 265°
2026-05-05 20:18 41.51075 -91.87176 29879 ft 351 kts 265°
2026-05-05 20:18 41.50855 -91.93679 29911 ft 352 kts 265°
2026-05-05 20:19 41.50633 -92.00150 29882 ft 352 kts 265°
2026-05-05 20:19 41.50409 -92.06685 29893 ft 353 kts 265°
2026-05-05 20:20 41.50175 -92.13166 29901 ft 352 kts 265°
2026-05-05 20:20 41.49940 -92.19683 29892 ft 351 kts 265°
2026-05-05 20:21 41.49706 -92.26144 29891 ft 352 kts 265°
2026-05-05 20:21 41.49464 -92.32628 29897 ft 352 kts 266°
2026-05-05 20:22 41.49217 -92.39150 29900 ft 353 kts 265°
2026-05-05 20:22 41.48971 -92.45603 29886 ft 350 kts 265°
2026-05-05 20:23 41.48721 -92.52089 29894 ft 351 kts 265°
2026-05-05 20:23 41.48466 -92.58581 29907 ft 350 kts 265°
2026-05-05 20:24 41.48209 -92.65001 29909 ft 350 kts 265°
2026-05-05 20:24 41.47945 -92.71535 29913 ft 359 kts 265°
2026-05-05 20:25 41.47665 -92.78309 29905 ft 370 kts 265°
2026-05-05 20:25 41.47384 -92.85102 29908 ft 369 kts 265°
2026-05-05 20:26 41.47097 -92.91943 29912 ft 369 kts 265°
2026-05-05 20:26 41.46806 -92.98724 29914 ft 367 kts 265°
2026-05-05 20:27 41.46511 -93.05548 29928 ft 367 kts 265°
2026-05-05 20:27 41.46212 -93.12354 29905 ft 369 kts 265°
2026-05-05 20:28 41.45907 -93.19151 29921 ft 368 kts 265°
2026-05-05 20:28 41.45603 -93.25916 29913 ft 367 kts 265°
2026-05-05 20:29 41.45295 -93.32716 29904 ft 368 kts 265°
2026-05-05 20:29 41.44984 -93.39484 29905 ft 368 kts 265°
2026-05-05 20:30 41.44667 -93.46260 29915 ft 368 kts 265°
2026-05-05 20:30 41.44342 -93.53061 29907 ft 369 kts 265°
2026-05-05 20:31 41.44014 -93.59855 29904 ft 367 kts 265°
2026-05-05 20:31 41.43711 -93.66614 29912 ft 367 kts 266°
2026-05-05 20:32 41.43715 -93.73405 29915 ft 367 kts 268°
2026-05-05 20:32 41.43820 -93.80173 29920 ft 367 kts 268°
2026-05-05 20:33 41.43894 -93.86970 29905 ft 367 kts 268°
2026-05-05 20:33 41.43943 -93.93739 29917 ft 367 kts 268°
2026-05-05 20:34 41.43976 -94.00552 29923 ft 368 kts 267°
2026-05-05 20:34 41.44001 -94.07341 29907 ft 367 kts 267°
2026-05-05 20:35 41.44024 -94.14103 29905 ft 368 kts 268°
2026-05-05 20:35 41.44040 -94.20921 29886 ft 370 kts 267°
2026-05-05 20:36 41.44056 -94.27708 29906 ft 368 kts 268°
2026-05-05 20:36 41.44066 -94.34510 29892 ft 367 kts 267°
2026-05-05 20:37 41.44073 -94.41304 29909 ft 367 kts 268°
2026-05-05 20:37 41.44075 -94.48066 29906 ft 367 kts 267°
2026-05-05 20:38 41.44072 -94.54903 29904 ft 368 kts 267°
2026-05-05 20:38 41.44064 -94.61662 29903 ft 367 kts 267°
2026-05-05 20:39 41.44052 -94.68514 29920 ft 368 kts 266°
2026-05-05 20:39 41.44038 -94.75309 29904 ft 367 kts 267°
2026-05-05 20:40 41.44018 -94.82086 29918 ft 369 kts 267°
2026-05-05 20:40 41.43996 -94.88926 29915 ft 368 kts 266°
2026-05-05 20:41 41.43971 -94.95703 29935 ft 366 kts 267°
2026-05-05 20:41 41.43940 -95.02452 29930 ft 367 kts 266°
2026-05-05 20:42 41.43905 -95.09253 29918 ft 366 kts 267°
2026-05-05 20:42 41.43866 -95.15994 29924 ft 367 kts 267°
2026-05-05 20:43 41.43828 -95.22761 29944 ft 367 kts 266°
2026-05-05 20:43 41.43784 -95.29542 29943 ft 365 kts 266°
2026-05-05 20:44 41.43735 -95.36321 29932 ft 368 kts 266°
2026-05-05 20:44 41.43682 -95.43071 29941 ft 366 kts 266°
2026-05-05 20:45 41.43597 -95.53248 29937 ft 366 kts 266°
2026-05-05 20:45 41.43533 -95.60003 29939 ft 367 kts 266°
2026-05-05 20:46 41.43466 -95.66805 29922 ft 366 kts 266°
2026-05-05 20:46 41.43395 -95.73538 29955 ft 365 kts 266°
2026-05-05 20:47 41.43317 -95.80328 29944 ft 366 kts 266°
2026-05-05 20:47 41.43239 -95.87085 29942 ft 366 kts 266°
2026-05-05 20:48 41.43155 -95.93723 29953 ft 366 kts 266°
2026-05-05 20:48 41.43066 -96.00452 29949 ft 366 kts 266°
2026-05-05 20:49 41.42972 -96.07233 29943 ft 366 kts 266°
2026-05-05 20:49 41.42873 -96.14033 29943 ft 368 kts 266°
2026-05-05 20:50 41.42790 -96.19683 29946 ft 367 kts 266°
2026-05-05 20:50 41.42670 -96.27597 29958 ft 367 kts 266°
2026-05-05 20:51 41.42563 -96.34354 29951 ft 367 kts 266°
2026-05-05 20:51 41.42452 -96.41118 29961 ft 367 kts 266°
2026-05-05 20:52 41.42338 -96.47911 29976 ft 366 kts 266°
2026-05-05 20:52 41.42219 -96.54679 29971 ft 367 kts 266°
2026-05-05 20:53 41.42096 -96.61490 29970 ft 368 kts 266°
2026-05-05 20:53 41.41969 -96.68301 29958 ft 368 kts 265°
2026-05-05 20:54 41.41839 -96.75035 29964 ft 368 kts 265°
2026-05-05 20:54 41.41703 -96.81816 29947 ft 367 kts 265°
2026-05-05 20:55 41.41567 -96.88586 29964 ft 368 kts 265°
2026-05-05 20:55 41.41426 -96.95401 29973 ft 367 kts 265°
2026-05-05 20:56 41.41278 -97.02226 29943 ft 369 kts 265°
2026-05-05 20:56 41.41125 -97.08989 29955 ft 367 kts 265°
2026-05-05 20:57 41.40967 -97.15759 29964 ft 370 kts 265°
2026-05-05 20:57 41.40805 -97.22581 29972 ft 366 kts 265°
2026-05-05 20:58 41.40638 -97.29404 29972 ft 368 kts 265°
2026-05-05 20:58 41.40472 -97.36177 29968 ft 368 kts 265°
2026-05-05 20:59 41.40301 -97.42986 29973 ft 370 kts 265°
2026-05-05 20:59 41.40123 -97.49813 29970 ft 369 kts 265°
2026-05-05 21:00 41.39942 -97.56605 29963 ft 369 kts 265°
2026-05-05 21:00 41.39759 -97.63460 29948 ft 369 kts 265°
2026-05-05 21:01 41.39572 -97.70285 29954 ft 371 kts 264°
2026-05-05 21:01 41.39384 -97.77137 29945 ft 372 kts 265°
2026-05-05 21:02 41.39189 -97.83990 29963 ft 374 kts 264°
2026-05-05 21:02 41.38985 -97.90882 29947 ft 372 kts 265°
2026-05-05 21:03 41.38781 -97.97769 29951 ft 374 kts 264°
2026-05-05 21:03 41.38572 -98.04634 29961 ft 372 kts 265°
2026-05-05 21:04 41.38359 -98.11498 29959 ft 374 kts 265°
2026-05-05 21:04 41.38139 -98.18405 29955 ft 372 kts 265°
2026-05-05 21:05 41.37915 -98.25253 29971 ft 373 kts 265°
2026-05-05 21:05 41.37642 -98.32159 29961 ft 375 kts 263°
2026-05-05 21:06 41.36733 -98.38911 29947 ft 372 kts 255°
2026-05-05 21:06 41.35178 -98.45477 29958 ft 373 kts 252°
2026-05-05 21:07 41.33533 -98.52030 29952 ft 373 kts 252°
2026-05-05 21:07 41.31904 -98.58566 29953 ft 376 kts 252°
2026-05-05 21:08 41.30273 -98.65159 29960 ft 375 kts 252°
2026-05-05 21:08 41.28650 -98.71732 29955 ft 376 kts 252°
2026-05-05 21:09 41.27015 -98.78339 29944 ft 378 kts 252°
2026-05-05 21:09 41.25366 -98.84975 29960 ft 379 kts 252°
2026-05-05 21:10 41.23725 -98.91565 29941 ft 377 kts 252°
2026-05-05 21:10 41.22074 -98.98177 29967 ft 379 kts 252°
2026-05-05 21:11 41.20413 -99.04803 29954 ft 377 kts 252°
2026-05-05 21:11 41.18744 -99.11439 29966 ft 381 kts 252°
2026-05-05 21:12 41.17070 -99.18064 29973 ft 378 kts 252°
2026-05-05 21:12 41.15390 -99.24703 29943 ft 380 kts 252°
2026-05-05 21:13 41.13712 -99.31313 29965 ft 380 kts 252°
2026-05-05 21:13 41.12030 -99.37930 29965 ft 381 kts 252°
2026-05-05 21:14 41.10334 -99.44589 29968 ft 383 kts 252°
2026-05-05 21:14 41.08628 -99.51271 29962 ft 381 kts 252°
2026-05-05 21:15 41.06933 -99.57889 29968 ft 384 kts 252°
2026-05-05 21:15 41.05218 -99.64570 29976 ft 384 kts 252°
2026-05-05 21:16 41.03487 -99.71288 29975 ft 385 kts 251°
2026-05-05 21:16 41.01768 -99.77949 29975 ft 385 kts 252°
2026-05-05 21:17 41.00028 -99.84701 29969 ft 389 kts 251°
2026-05-05 21:17 40.98283 -99.91433 29960 ft 391 kts 251°
2026-05-05 21:18 40.96521 -99.98183 29949 ft 386 kts 251°
2026-05-05 21:18 40.94765 -100.04894 29988 ft 387 kts 251°
2026-05-05 21:19 40.93004 -100.11608 29965 ft 387 kts 251°
2026-05-05 21:19 40.91249 -100.18297 29938 ft 387 kts 252°
2026-05-05 21:20 40.89487 -100.24989 29958 ft 386 kts 251°
2026-05-05 21:20 40.87722 -100.31665 29960 ft 385 kts 251°
2026-05-05 21:21 40.85959 -100.38317 29966 ft 386 kts 251°
2026-05-05 21:21 40.84188 -100.44992 29950 ft 388 kts 252°
2026-05-05 21:22 40.82406 -100.51691 29986 ft 386 kts 251°
2026-05-05 21:22 40.80628 -100.58354 29960 ft 388 kts 252°
2026-05-05 21:23 40.78852 -100.65033 29983 ft 386 kts 252°
2026-05-05 21:23 40.77467 -100.71863 29948 ft 386 kts 257°
2026-05-05 21:24 40.76339 -100.78793 29960 ft 386 kts 257°
2026-05-05 21:24 40.75214 -100.85738 29945 ft 390 kts 257°
2026-05-05 21:25 40.74062 -100.92648 29970 ft 388 kts 257°
2026-05-05 21:25 40.72889 -100.99546 29985 ft 387 kts 257°
2026-05-05 21:26 40.71700 -101.06472 29972 ft 387 kts 257°
2026-05-05 21:26 40.70501 -101.13414 29964 ft 388 kts 257°
2026-05-05 21:27 40.69297 -101.20340 29951 ft 389 kts 257°
2026-05-05 21:27 40.68095 -101.27201 29967 ft 388 kts 257°
2026-05-05 21:28 40.66876 -101.34136 29947 ft 387 kts 257°
2026-05-05 21:28 40.65662 -101.41009 29977 ft 389 kts 257°
2026-05-05 21:29 40.64442 -101.47916 29954 ft 389 kts 257°
2026-05-05 21:29 40.63222 -101.54806 29974 ft 388 kts 257°
2026-05-05 21:30 40.61987 -101.61734 29976 ft 388 kts 257°
2026-05-05 21:30 40.60748 -101.68662 29969 ft 390 kts 256°
2026-05-05 21:31 40.59506 -101.75568 29975 ft 390 kts 256°
2026-05-05 21:31 40.58258 -101.82488 29968 ft 391 kts 256°
2026-05-05 21:32 40.57001 -101.89417 29970 ft 392 kts 256°
2026-05-05 21:32 40.55735 -101.96378 29976 ft 393 kts 256°
2026-05-05 21:33 40.54462 -102.03323 29981 ft 392 kts 256°
2026-05-05 21:33 40.53173 -102.10289 29968 ft 391 kts 256°
2026-05-05 21:34 40.51881 -102.17217 29971 ft 392 kts 256°
2026-05-05 21:34 40.50581 -102.24165 29974 ft 392 kts 256°
2026-05-05 21:35 40.49279 -102.31107 29962 ft 394 kts 256°
2026-05-05 21:35 40.47969 -102.38068 29981 ft 394 kts 256°
2026-05-05 21:36 40.46652 -102.45046 29966 ft 394 kts 256°
2026-05-05 21:36 40.45334 -102.52005 29975 ft 395 kts 256°
2026-05-05 21:37 40.44012 -102.58965 29964 ft 391 kts 256°
2026-05-05 21:37 40.43370 -102.62340 29961 ft 377 kts 256°
2026-05-05 21:37 40.42738 -102.65655 29970 ft 372 kts 255°
2026-05-05 21:38 40.41472 -102.72250 29963 ft 378 kts 256°
2026-05-05 21:38 40.40178 -102.78952 29963 ft 379 kts 255°
2026-05-05 21:39 40.38894 -102.85589 29967 ft 378 kts 255°
2026-05-05 21:39 40.37599 -102.92275 29966 ft 378 kts 256°
2026-05-05 21:40 40.36297 -102.98947 29967 ft 380 kts 256°
2026-05-05 21:40 40.35003 -103.05586 29680 ft 371 kts 256°
2026-05-05 21:41 40.34373 -103.08836 29236 ft 371 kts 255°
2026-05-05 21:41 40.33740 -103.12086 28647 ft 372 kts 255°
2026-05-05 21:41 40.33095 -103.15392 28056 ft 375 kts 256°
2026-05-05 21:41 40.32442 -103.18734 27690 ft 385 kts 256°
2026-05-05 21:42 40.31778 -103.22121 27211 ft 382 kts 256°
2026-05-05 21:42 40.31123 -103.25459 26722 ft 376 kts 256°
2026-05-05 21:42 40.30484 -103.28705 26239 ft 372 kts 256°
2026-05-05 21:42 40.29837 -103.31965 25756 ft 367 kts 256°
2026-05-05 21:43 40.29204 -103.35148 25271 ft 362 kts 256°
2026-05-05 21:43 40.28577 -103.38304 24793 ft 358 kts 256°
2026-05-05 21:43 40.27949 -103.41462 24312 ft 354 kts 256°
2026-05-05 21:43 40.27338 -103.44528 23851 ft 351 kts 256°
2026-05-05 21:44 40.26727 -103.47591 23385 ft 347 kts 256°
2026-05-05 21:44 40.26115 -103.50661 22910 ft 345 kts 256°
2026-05-05 21:44 40.25517 -103.53651 22441 ft 342 kts 256°
2026-05-05 21:44 40.24917 -103.56644 22025 ft 338 kts 256°
2026-05-05 21:45 40.24331 -103.59598 21984 ft 338 kts 257°
2026-05-05 21:45 40.23737 -103.62614 21987 ft 347 kts 257°
2026-05-05 21:45 40.23132 -103.65673 21983 ft 348 kts 256°
2026-05-05 21:45 40.22523 -103.68745 21828 ft 347 kts 256°
2026-05-05 21:46 40.21920 -103.71764 21398 ft 343 kts 256°
2026-05-05 21:46 40.21318 -103.74766 20936 ft 340 kts 256°
2026-05-05 21:46 40.20724 -103.77739 20456 ft 338 kts 256°
2026-05-05 21:46 40.20131 -103.80690 19990 ft 336 kts 257°
2026-05-05 21:47 40.19542 -103.83590 19517 ft 332 kts 256°
2026-05-05 21:47 40.18962 -103.86463 19255 ft 323 kts 256°
2026-05-05 21:47 40.18367 -103.89230 19122 ft 311 kts 254°
2026-05-05 21:47 40.17602 -103.91817 18971 ft 301 kts 246°
2026-05-05 21:48 40.16623 -103.94183 18982 ft 293 kts 242°
2026-05-05 21:48 40.15564 -103.96447 18982 ft 294 kts 241°
2026-05-05 21:48 40.14473 -103.98725 18976 ft 295 kts 241°
2026-05-05 21:48 40.13380 -104.01019 18971 ft 295 kts 241°
2026-05-05 21:49 40.12296 -104.03299 18770 ft 296 kts 241°
2026-05-05 21:49 40.11227 -104.05549 18525 ft 292 kts 241°
2026-05-05 21:49 40.10161 -104.07795 18287 ft 288 kts 242°
2026-05-05 21:49 40.09119 -104.09996 17981 ft 283 kts 241°
2026-05-05 21:50 40.08094 -104.12174 17601 ft 282 kts 242°
2026-05-05 21:50 40.07075 -104.14344 17216 ft 280 kts 241°
2026-05-05 21:50 40.06061 -104.16491 16983 ft 277 kts 241°
2026-05-05 21:50 40.05050 -104.18617 16976 ft 283 kts 241°
2026-05-05 21:51 40.04006 -104.20808 16759 ft 285 kts 241°
2026-05-05 21:51 40.02962 -104.22999 16401 ft 282 kts 240°
2026-05-05 21:51 40.01932 -104.25163 16026 ft 280 kts 240°
2026-05-05 21:51 40.00920 -104.27289 15648 ft 278 kts 240°
2026-05-05 21:52 39.98885 -104.31557 14910 ft 274 kts 240°
2026-05-05 21:52 39.97878 -104.33664 14535 ft 273 kts 239°
2026-05-05 21:52 39.96888 -104.35734 14168 ft 271 kts 240°
2026-05-05 21:53 39.95902 -104.37798 13832 ft 269 kts 240°
2026-05-05 21:53 39.94924 -104.39848 13485 ft 267 kts 239°
2026-05-05 21:53 39.93936 -104.41915 13147 ft 268 kts 239°
2026-05-05 21:53 39.92945 -104.43984 12787 ft 276 kts 239°
2026-05-05 21:54 39.91906 -104.46143 12433 ft 285 kts 238°
2026-05-05 21:54 39.90722 -104.48191 12055 ft 286 kts 225°
2026-05-05 21:54 39.89067 -104.49625 11692 ft 288 kts 201°
2026-05-05 21:54 39.87077 -104.50060 11427 ft 290 kts 181°
2026-05-05 21:55 39.85051 -104.50024 11273 ft 289 kts 181°
2026-05-05 21:55 39.83073 -104.50030 11193 ft 288 kts 182°
2026-05-05 21:55 39.81057 -104.50075 11096 ft 290 kts 182°
2026-05-05 21:55 39.79037 -104.50124 10989 ft 287 kts 182°
2026-05-05 21:56 39.77046 -104.50153 10993 ft 280 kts 182°
2026-05-05 21:56 39.75182 -104.50162 10991 ft 258 kts 181°
2026-05-05 21:56 39.73451 -104.50163 10994 ft 244 kts 182°
2026-05-05 21:56 39.71730 -104.50170 10989 ft 247 kts 182°
2026-05-05 21:57 39.70010 -104.50182 10986 ft 246 kts 181°
2026-05-05 21:57 39.68301 -104.50192 10986 ft 247 kts 182°
2026-05-05 21:57 39.66582 -104.50202 10985 ft 247 kts 182°
2026-05-05 21:57 39.64870 -104.50255 11011 ft 246 kts 189°
2026-05-05 21:58 39.63315 -104.51090 10982 ft 246 kts 224°
2026-05-05 21:58 39.62410 -104.52967 10995 ft 250 kts 256°
2026-05-05 21:58 39.62176 -104.55201 10875 ft 254 kts 265°
2026-05-05 21:58 39.62117 -104.57481 10487 ft 254 kts 268°
2026-05-05 21:59 39.62080 -104.59757 10112 ft 253 kts 267°
2026-05-05 21:59 39.62043 -104.62044 9738 ft 255 kts 268°
2026-05-05 21:59 39.62037 -104.64340 9397 ft 255 kts 276°
2026-05-05 21:59 39.62638 -104.66454 9008 ft 254 kts 312°
2026-05-05 22:00 39.64038 -104.67657 8986 ft 235 kts 349°
2026-05-05 22:00 39.65558 -104.67518 8910 ft 212 kts 25°
2026-05-05 22:00 39.66838 -104.66660 8581 ft 202 kts 25°
2026-05-05 22:00 39.68192 -104.66234 8359 ft 200 kts
2026-05-05 22:01 39.69590 -104.66201 8048 ft 201 kts
2026-05-05 22:01 39.70969 -104.66207 7784 ft 197 kts
2026-05-05 22:01 39.72318 -104.66187 7519 ft 189 kts
2026-05-05 22:01 39.73576 -104.66165 7298 ft 173 kts
2026-05-05 22:02 39.74765 -104.66153 7023 ft 170 kts
2026-05-05 22:02 39.75953 -104.66141 6802 ft 168 kts
2026-05-05 22:02 39.77111 -104.66124 6606 ft 166 kts
2026-05-05 22:02 39.78280 -104.66109 6370 ft 166 kts
2026-05-05 22:03 39.79429 -104.66095 6136 ft 166 kts
2026-05-05 22:03 39.80569 -104.66089 5910 ft 165 kts
2026-05-05 22:03 39.81731 -104.66068 5655 ft 165 kts
2026-05-05 22:03 39.82857 -104.66059 5473 ft 163 kts
2026-05-05 22:04 39.83885 -104.66042 5430 ft 115 kts
2026-05-05 22:04 39.84468 -104.66034 5416 ft 61 kts
2026-05-05 22:04 39.84858 -104.66028 5409 ft 49 kts
2026-05-05 22:04 39.85138 -104.66065 5405 ft 24 kts 342°
2026-05-05 22:05 39.85278 -104.66145 5401 ft 22 kts 333°
2026-05-05 22:05 39.85419 -104.66232 5399 ft 21 kts 352°
2026-05-05 22:05 39.85576 -104.66235 5395 ft 23 kts 359°
2026-05-05 22:05 39.85754 -104.66235 5394 ft 28 kts
2026-05-05 22:06 39.85949 -104.66232 5387 ft 24 kts 359°
2026-05-05 22:06 39.86018 -104.66376 5380 ft 22 kts 270°
2026-05-05 22:06 39.86046 -104.66563 5380 ft 20 kts 302°
2026-05-05 22:06 39.86061 -104.66750 5380 ft 24 kts 269°
2026-05-05 22:07 39.86063 -104.66983 5380 ft 25 kts 270°
2026-05-05 22:07 39.86064 -104.67204 5380 ft 21 kts 270°
2026-05-05 22:07 39.86157 -104.67309 5376 ft 19 kts 348°
2026-05-05 22:07 39.86227 -104.67311 5376 ft 4 kts 19°
2026-05-05 22:08 39.86238 -104.67306 5376 ft 0 kts 19°